When you browse on this site, cookies collect data to enhance your experience and personalize the content and advertising you see.
Visit our Privacy Policy to learn more. By continuing to use the site, you agree to this use of cookies and data.
  • In United Kingdom
  • List of Countries
  • For 7 days
  • Water Temperature
  • Weather Map
  • Weather Widgets
  • user-avatar
    Login

    Hourly Weather Ossett

    Today, 28 February, Friday

    Time Temperature Precipitation Wind Pressure Humidity
    00:00 +1°C° 0 mm 4 mps 751 mmHg 82%
    01:00 +1°C° 0 mm 3 mps 751 mmHg 82%
    02:00 +1°C° 0 mm 3 mps 751 mmHg 81%
    03:00 +1°C° 0 mm 3 mps 751 mmHg 80%
    04:00 +1°C° 0 mm 3 mps 750 mmHg 80%
    05:00 +1°C° 0 mm 3 mps 750 mmHg 79%
    06:00 +1°C° 0 mm 3 mps 750 mmHg 78%
    07:00 +1°C° 0.1 mm 4 mps 749 mmHg 80%
    08:00 +1°C° 0.1 mm 4 mps 748 mmHg 82%
    09:00 +1°C° 0.1 mm 5 mps 747 mmHg 85%
    10:00 +1°C° 1.1 mm 6 mps 745 mmHg 88%
    11:00 +1°C° 1.1 mm 6 mps 743 mmHg 91%
    12:00 0°C° 1.1 mm 7 mps 742 mmHg 95%
    13:00 +2°C° 1.4 mm 6 mps 740 mmHg 95%
    14:00 +3°C° 1.4 mm 6 mps 739 mmHg 95%
    15:00 +5°C° 1.4 mm 5 mps 738 mmHg 95%
    16:00 +6°C° 0.7 mm 5 mps 737 mmHg 94%
    17:00 +7°C° 0.7 mm 6 mps 736 mmHg 93%
    18:00 +8°C° 0.7 mm 6 mps 736 mmHg 93%
    19:00 +8°C° 0.1 mm 6 mps 735 mmHg 93%
    20:00 +8°C° 0.1 mm 5 mps 735 mmHg 93%
    21:00 +8°C° 0.1 mm 5 mps 734 mmHg 93%
    22:00 +8°C° 0.2 mm 5 mps 734 mmHg 93%
    23:00 +8°C° 0.2 mm 5 mps 733 mmHg 92%

    Tomorrow, 29 February, Saturday

    Time Temperature Precipitation Wind Pressure Humidity
    00:00 +9°C° 0.2 mm 6 mps 732 mmHg 92%
    01:00 +9°C° 0.3 mm 7 mps 730 mmHg 90%
    02:00 +9°C° 0.3 mm 7 mps 728 mmHg 88%
    03:00 +9°C° 0.3 mm 8 mps 727 mmHg 85%
    04:00 +9°C° 0.2 mm 8 mps 726 mmHg 85%
    05:00 +7°C° 0.2 mm 9 mps 726 mmHg 84%
    06:00 +7°C° 0.2 mm 9 mps 725 mmHg 84%
    07:00 +5°C° 0.2 mm 9 mps 725 mmHg 83%
    08:00 +4°C° 0.2 mm 8 mps 725 mmHg 83%
    09:00 +1°C° 0.2 mm 8 mps 725 mmHg 82%
    10:00 +1°C° 0.1 mm 8 mps 726 mmHg 72%
    11:00 +2°C° 0.1 mm 8 mps 726 mmHg 62%
    12:00 +2°C° 0.1 mm 9 mps 727 mmHg 51%
    13:00 +2°C° 0 mm 9 mps 726 mmHg 55%
    14:00 +2°C° 0 mm 10 mps 726 mmHg 59%
    15:00 +2°C° 0 mm 11 mps 726 mmHg 63%
    16:00 +2°C° 0.2 mm 11 mps 726 mmHg 62%
    17:00 +2°C° 0.2 mm 10 mps 726 mmHg 61%
    18:00 +2°C° 0.2 mm 10 mps 726 mmHg 61%
    19:00 +1°C° 0 mm 10 mps 726 mmHg 60%
    20:00 +1°C° 0 mm 10 mps 726 mmHg 60%
    21:00 +1°C° 0 mm 11 mps 726 mmHg 59%
    22:00 +1°C° 0 mm 10 mps 726 mmHg 60%
    23:00 +1°C° 0 mm 10 mps 726 mmHg 62%

    Day after tomorrow, 1 March, Sunday

    Time Temperature Precipitation Wind Pressure Humidity
    00:00 0°C° 0 mm 10 mps 726 mmHg 63%
    01:00 0°C° 0.1 mm 10 mps 727 mmHg 68%
    02:00 0°C° 0.1 mm 10 mps 727 mmHg 72%
    03:00 -1°C° 0.1 mm 11 mps 727 mmHg 77%
    04:00 0°C° 0 mm 10 mps 727 mmHg 72%
    05:00 0°C° 0 mm 10 mps 728 mmHg 67%
    06:00 0°C° 0 mm 9 mps 728 mmHg 62%
    07:00 0°C° 0 mm 9 mps 728 mmHg 63%
    08:00 +1°C° 0 mm 9 mps 728 mmHg 64%
    09:00 +1°C° 0 mm 9 mps 728 mmHg 65%
    10:00 +2°C° 0.1 mm 9 mps 729 mmHg 63%
    11:00 +2°C° 0.1 mm 10 mps 729 mmHg 60%
    12:00 +3°C° 0.1 mm 10 mps 729 mmHg 57%
    13:00 +3°C° 0.1 mm 10 mps 729 mmHg 56%
    14:00 +3°C° 0.1 mm 10 mps 729 mmHg 56%
    15:00 +3°C° 0.1 mm 9 mps 729 mmHg 55%
    16:00 +4°C° 0 mm 8 mps 730 mmHg 58%
    17:00 +3°C° 0 mm 7 mps 730 mmHg 61%
    18:00 +2°C° 0 mm 6 mps 730 mmHg 64%
    19:00 +2°C° 0 mm 6 mps 730 mmHg 67%
    20:00 +2°C° 0 mm 6 mps 730 mmHg 70%
    21:00 +1°C° 0 mm 5 mps 730 mmHg 74%
    22:00 +1°C° 0 mm 5 mps 730 mmHg 74%
    23:00 +1°C° 0 mm 5 mps 731 mmHg 75%

    2 March, Monday

    Time Temperature Precipitation Wind Pressure Humidity
    00:00 0°C° 0 mm 5 mps 731 mmHg 75%
    01:00 0°C° 0 mm 5 mps 731 mmHg 75%
    02:00 0°C° 0 mm 5 mps 731 mmHg 75%
    03:00 0°C° 0 mm 5 mps 731 mmHg 75%
    04:00 0°C° 0 mm 5 mps 731 mmHg 75%
    05:00 0°C° 0 mm 5 mps 731 mmHg 76%
    06:00 0°C° 0 mm 5 mps 732 mmHg 77%
    07:00 0°C° 0 mm 5 mps 732 mmHg 74%
    08:00 +1°C° 0 mm 6 mps 732 mmHg 71%
    09:00 +2°C° 0 mm 6 mps 733 mmHg 68%
    10:00 +2°C° 0.1 mm 7 mps 733 mmHg 66%
    11:00 +3°C° 0.1 mm 7 mps 733 mmHg 64%
    12:00 +3°C° 0.1 mm 7 mps 734 mmHg 62%
    13:00 +3°C° 0.1 mm 7 mps 734 mmHg 63%
    14:00 +2°C° 0.1 mm 8 mps 734 mmHg 65%
    15:00 +2°C° 0.1 mm 8 mps 734 mmHg 66%
    16:00 +3°C° 0 mm 7 mps 735 mmHg 66%
    17:00 +2°C° 0 mm 6 mps 736 mmHg 65%
    18:00 +2°C° 0 mm 5 mps 736 mmHg 64%
    19:00 +2°C° 0 mm 5 mps 737 mmHg 67%
    20:00 +1°C° 0 mm 5 mps 737 mmHg 70%
    21:00 +1°C° 0 mm 5 mps 738 mmHg 73%
    22:00 +1°C° 0 mm 6 mps 738 mmHg 74%
    23:00 +1°C° 0 mm 6 mps 738 mmHg 75%

    3 March, Tuesday

    Time Temperature Precipitation Wind Pressure Humidity
    00:00 +1°C° 0 mm 6 mps 738 mmHg 76%
    01:00 0°C° 0.3 mm 7 mps 739 mmHg 80%
    02:00 0°C° 0.3 mm 8 mps 739 mmHg 84%
    03:00 0°C° 0.3 mm 8 mps 739 mmHg 88%
    04:00 0°C° 0.1 mm 8 mps 739 mmHg 88%
    05:00 0°C° 0.1 mm 8 mps 740 mmHg 88%
    06:00 0°C° 0.1 mm 8 mps 740 mmHg 88%
    07:00 +1°C° 0.1 mm 8 mps 741 mmHg 86%
    08:00 +1°C° 0.1 mm 8 mps 741 mmHg 84%
    09:00 +1°C° 0.1 mm 8 mps 742 mmHg 82%
    10:00 +1°C° 0 mm 8 mps 742 mmHg 80%
    11:00 +2°C° 0 mm 8 mps 742 mmHg 77%
    12:00 +2°C° 0 mm 8 mps 743 mmHg 75%
    13:00 +3°C° 0 mm 7 mps 743 mmHg 72%
    14:00 +3°C° 0 mm 7 mps 743 mmHg 69%
    15:00 +3°C° 0 mm 7 mps 743 mmHg 66%
    16:00 +3°C° 0 mm 6 mps 743 mmHg 68%
    17:00 +2°C° 0 mm 5 mps 743 mmHg 70%
    18:00 +3°C° 0 mm 4 mps 743 mmHg 72%
    19:00 +1°C° 0 mm 4 mps 743 mmHg 74%
    20:00 +1°C° 0 mm 4 mps 744 mmHg 76%
    21:00 +1°C° 0 mm 3 mps 744 mmHg 78%
    22:00 +1°C° 0 mm 3 mps 744 mmHg 79%
    23:00 +1°C° 0 mm 3 mps 744 mmHg 81%

    4 March, Wednesday

    Time Temperature Precipitation Wind Pressure Humidity
    00:00 +1°C° 0 mm 3 mps 744 mmHg 82%
    01:00 +1°C° 0 mm 2 mps 744 mmHg 83%
    02:00 +1°C° 0 mm 2 mps 744 mmHg 84%
    03:00 +1°C° 0 mm 2 mps 744 mmHg 85%
    04:00 +1°C° 0 mm 2 mps 744 mmHg 85%
    05:00 +1°C° 0 mm 2 mps 744 mmHg 86%
    06:00 -1°C° 0 mm 2 mps 744 mmHg 86%
    07:00 +1°C° 0 mm 2 mps 744 mmHg 82%
    08:00 +2°C° 0 mm 2 mps 745 mmHg 79%
    09:00 +3°C° 0 mm 2 mps 745 mmHg 75%
    10:00 +4°C° 0 mm 2 mps 745 mmHg 67%
    11:00 +5°C° 0 mm 2 mps 745 mmHg 59%
    12:00 +6°C° 0 mm 2 mps 745 mmHg 52%
    13:00 +7°C° 0 mm 1 mps 745 mmHg 50%
    14:00 +8°C° 0 mm 1 mps 745 mmHg 48%
    15:00 +8°C° 0 mm 1 mps 744 mmHg 46%
    16:00 +7°C° 0 mm 1 mps 745 mmHg 51%
    17:00 +6°C° 0 mm 1 mps 745 mmHg 55%
    18:00 +5°C° 0 mm 1 mps 745 mmHg 60%
    19:00 +4°C° 0 mm 1 mps 745 mmHg 62%
    20:00 +4°C° 0 mm 1 mps 745 mmHg 65%
    21:00 +3°C° 0 mm 1 mps 746 mmHg 67%
    22:00 +3°C° 0 mm 1 mps 746 mmHg 70%
    23:00 +3°C° 0 mm 1 mps 746 mmHg 73%
    Show more